Regional Weather Roundup
Issued by NWS

Home | Current Version | Previous Version | Text Only | Print | Product List | Glossary Off
Versions: 1 2 3 4 5 6 7 8 9 10 11 12 13 14 15 16 17 18 19 20 21 22 23 24 25 26 27 28 29 30 31 32 33 34 35 36 37 38 39 40 41 42 43 44 45 46 47 48 49 50

787
ASUS45 KCYS 071910
RWRWY

WYOMING REGIONAL WEATHER ROUNDUP
NATIONAL WEATHER SERVICE CHEYENNE WY
1200 PM MST SUN FEB 07 2016

NOTE:  "FAIR" INDICATES FEW OR NO CLOUDS BELOW 12,000 FEET
WITH NO SIGNIFICANT WEATHER AND/OR OBSTRUCTIONS TO VISIBILITY.

WYZ001-072000-
YELLOWSTONE NATIONAL PARK

CITY           SKY/WX    TMP DP  RH WIND       PRES   REMARKS
LK YELLOWSTONE   N/A     29   9  43 VRB6      30.44F WCI  23
W YELLOWSTONE  NOT AVBL

$$
WYZ002>013-054>058-071-098>099-072000-
NORTHERN WYOMING

CITY           SKY/WX    TMP DP  RH WIND       PRES   REMARKS
JACKSON        SUNNY     32  19  59 CALM      30.48S
CODY           FAIR      34  16  47 N15G21    30.40F WCI  24
GREYBULL       FAIR      38  11  32 N24G31    30.40F WCI  27
WORLAND        FAIR      35  15  44 W8        30.43S WCI  29
SHERIDAN       CLOUDY    35  13  40 NW29G37   30.40F WCI  22
BUFFALO        FAIR      32  11  41 N33G45    30.34F WCI  17
GILLETTE       FAIR      31  12  45 NW28G41   30.32F WCI  17
HULETT         FAIR      32  10  40 NW23G46   30.28S WCI  19
NEWCASTLE      FAIR      32   5  32 NW31G44   30.28S WCI  17

$$
WYZ014>020-022>026-101>103-072000-
CENTRAL WYOMING

CITY           SKY/WX    TMP DP  RH WIND       PRES   REMARKS
BIG PINEY      FAIR      36  19  50 N20       30.44R WCI  25
PINEDALE       FAIR      32  19  59 W20G26    30.42S WCI  20
DUBOIS         FAIR      34   9  35 NW16G25   30.36F WCI  23
LANDER         FAIR      33  16  49 SE8       30.41R WCI  26
RIVERTON       FAIR      30  15  53 S5        30.41S WCI  25
CASPER         CLOUDY    27  13  55 CALM      30.38F
DOUGLAS          N/A     30  14  51 NW24        N/A  WCI  16

$$
WYZ021-027>030-104>119-072000-
SOUTHERN WYOMING

CITY           SKY/WX    TMP DP  RH WIND       PRES   REMARKS
EVANSTON       FAIR      30  20  66 SW13      30.52S WCI  20
FORT BRIDGER   CLEAR     34  23  64 W20       30.53S WCI  22
ROCK SPRINGS   FAIR      31  21  66 W31G39    30.43S WCI  16
DIXON          FAIR      28  18  66 N3        30.48F
RAWLINS        PTSUNNY   28  21  75 W18       30.40S WCI  15
SARATOGA       FAIR      30  23  74 W26G33    30.38F WCI  16
LARAMIE        FAIR      27  20  75 NW23G37   30.28F WCI  12
CHEYENNE       CLOUDY    31  19  61 N25G41    30.27F WCI  17
TORRINGTON     CLOUDY    33  15  47 NW26G36   30.31S WCI  20
PINE BLUFFS    CLOUDY    28  21  74 NW29G36   30.32F WCI  13

$$




USA.gov is the U.S. government's official web portal to all federal, state and local government web resources and services.